SWR1976 VRMM-WADD

Flight info

Callsign SWR1976
Flight time N/A
Altitude 37000
Route GOKAM2B GOKAM P756 OBDAL M766 SELSU/N0477F390 M766 PAGAI DCT BKL DCT ELDEM L896 GUVIL DCT SBR DCT
Aircraft A333/H-SDE3GHIJ2J3J5M1RVWXY/LB2D1

Departure

Time 2026-04-29 03:39
Airport Velana International Airport (VRMM)

Arrival

Time N/A
Airport Denpasar I Gusti Ngurah Rai International Airport (WADD)
Time Latitude Longitude Altitude Speed Heading
2026-04-29 03:33 4.18922 73.52822 23 ft 0 kts 180°
2026-04-29 03:35 4.18920 73.52822 23 ft 1 kts 179°
2026-04-29 03:35 4.18900 73.52822 23 ft 4 kts 181°
2026-04-29 03:35 4.18837 73.52821 23 ft 12 kts 182°
2026-04-29 03:35 4.18777 73.52820 23 ft 7 kts 179°
2026-04-29 03:36 4.18706 73.52824 23 ft 12 kts 171°
2026-04-29 03:36 4.18668 73.52848 23 ft 0 kts 122°
2026-04-29 03:37 4.18667 73.52849 23 ft 1 kts 122°
2026-04-29 03:37 4.18658 73.52875 23 ft 6 kts 93°
2026-04-29 03:37 4.18684 73.52914 23 ft 8 kts 27°
2026-04-29 03:38 4.18751 73.52924 23 ft 16 kts
2026-04-29 03:38 4.19036 73.52918 23 ft 67 kts 359°
2026-04-29 03:38 4.19675 73.52906 23 ft 116 kts 359°
2026-04-29 03:38 4.20643 73.52885 48 ft 157 kts 357°
2026-04-29 03:39 4.21770 73.52868 361 ft 169 kts 359°
2026-04-29 03:39 4.22969 73.52945 836 ft 176 kts
2026-04-29 03:39 4.24260 73.53026 1166 ft 196 kts
2026-04-29 03:39 4.25639 73.53074 1775 ft 198 kts
2026-04-29 03:40 4.26564 73.53099 2082 ft 203 kts 359°
2026-04-29 03:40 4.28583 73.53120 2294 ft 237 kts 359°
2026-04-29 03:40 4.29742 73.53127 2362 ft 256 kts 359°
2026-04-29 03:40 4.31567 73.53138 2903 ft 262 kts 359°
2026-04-29 03:41 4.33405 73.53147 3644 ft 265 kts 359°
2026-04-29 03:41 4.35244 73.53154 4293 ft 269 kts 359°
2026-04-29 03:41 4.37121 73.53180 4970 ft 272 kts
2026-04-29 03:41 4.38964 73.53644 5608 ft 276 kts 24°
2026-04-29 03:42 4.40546 73.54747 6258 ft 280 kts 46°
2026-04-29 03:42 4.41598 73.56386 6858 ft 283 kts 70°
2026-04-29 03:42 4.41938 73.58324 7502 ft 284 kts 88°
2026-04-29 03:42 4.42024 73.60312 8107 ft 288 kts 88°
2026-04-29 03:43 4.42087 73.62324 8721 ft 290 kts 89°
2026-04-29 03:43 4.42124 73.64354 9310 ft 293 kts 90°
2026-04-29 03:43 4.42137 73.66397 9941 ft 294 kts 89°
2026-04-29 03:43 4.42158 73.68476 10197 ft 311 kts 90°
2026-04-29 03:44 4.42171 73.70714 10283 ft 332 kts 90°
2026-04-29 03:44 4.42179 73.73112 10369 ft 353 kts 90°
2026-04-29 03:44 4.42183 73.75647 10471 ft 373 kts 90°
2026-04-29 03:44 4.41984 73.78238 11129 ft 373 kts 98°
2026-04-29 03:45 4.41563 73.80822 11787 ft 376 kts 99°
2026-04-29 03:45 4.41133 73.83417 12443 ft 378 kts 99°
2026-04-29 03:45 4.40701 73.85991 13102 ft 380 kts 99°
2026-04-29 03:45 4.40255 73.88613 13743 ft 382 kts 99°
2026-04-29 03:46 4.39806 73.91238 14371 ft 384 kts 99°
2026-04-29 03:46 4.39349 73.93885 14991 ft 386 kts 99°
2026-04-29 03:46 4.38888 73.96546 15599 ft 388 kts 99°
2026-04-29 03:46 4.38424 73.99218 16202 ft 390 kts 99°
2026-04-29 03:47 4.37960 74.01884 16774 ft 392 kts 99°
2026-04-29 03:47 4.37489 74.04587 17351 ft 394 kts 99°
2026-04-29 03:47 4.37013 74.07312 17911 ft 396 kts 99°
2026-04-29 03:47 4.36536 74.10036 18441 ft 399 kts 99°
2026-04-29 03:48 4.36054 74.12790 18908 ft 403 kts 99°
2026-04-29 03:48 4.35567 74.15568 19394 ft 406 kts 99°
2026-04-29 03:48 4.35077 74.18363 19890 ft 409 kts 99°
2026-04-29 03:48 4.34584 74.21177 20319 ft 412 kts 99°
2026-04-29 03:49 4.34085 74.24026 20768 ft 415 kts 99°
2026-04-29 03:49 4.33584 74.26884 21223 ft 418 kts 98°
2026-04-29 03:49 4.33085 74.29730 21610 ft 422 kts 98°
2026-04-29 03:49 4.32576 74.32634 22037 ft 424 kts 98°
2026-04-29 03:50 4.32063 74.35555 22439 ft 427 kts 98°
2026-04-29 03:50 4.31546 74.38503 22806 ft 430 kts 98°
2026-04-29 03:50 4.31027 74.41462 23226 ft 432 kts 98°
2026-04-29 03:50 4.30504 74.44444 23556 ft 436 kts 98°
2026-04-29 03:51 4.29978 74.47440 23957 ft 438 kts 98°
2026-04-29 03:51 4.29442 74.50458 24299 ft 441 kts 98°
2026-04-29 03:51 4.28918 74.53497 24637 ft 443 kts 98°
2026-04-29 03:51 4.28392 74.56545 24976 ft 446 kts 98°
2026-04-29 03:52 4.27862 74.59621 25309 ft 449 kts 98°
2026-04-29 03:52 4.27330 74.62704 25647 ft 451 kts 98°
2026-04-29 03:52 4.26793 74.65814 25957 ft 454 kts 98°
2026-04-29 03:52 4.26255 74.68934 26263 ft 456 kts 98°
2026-04-29 03:53 4.25718 74.72041 26583 ft 459 kts 98°
2026-04-29 03:53 4.25172 74.75204 26899 ft 461 kts 99°
2026-04-29 03:53 4.24622 74.78384 27184 ft 464 kts 99°
2026-04-29 03:53 4.24072 74.81570 27491 ft 466 kts 99°
2026-04-29 03:54 4.23516 74.84783 27783 ft 468 kts 99°
2026-04-29 03:54 4.22958 74.88009 28051 ft 471 kts 99°
2026-04-29 03:54 4.22398 74.91248 28366 ft 472 kts 99°
2026-04-29 03:54 4.21834 74.94508 28609 ft 475 kts 99°
2026-04-29 03:55 4.21267 74.97781 28914 ft 477 kts 99°
2026-04-29 03:55 4.20699 75.01062 29138 ft 480 kts 99°
2026-04-29 03:55 4.20127 75.04365 29427 ft 481 kts 99°
2026-04-29 03:55 4.19554 75.07677 29654 ft 484 kts 99°
2026-04-29 03:56 4.18976 75.11011 29903 ft 486 kts 100°
2026-04-29 03:56 4.18402 75.14317 30167 ft 488 kts 100°
2026-04-29 03:56 4.17821 75.17670 30400 ft 490 kts 100°
2026-04-29 03:56 4.17235 75.21044 30691 ft 490 kts 100°
2026-04-29 03:57 4.16705 75.24099 31010 ft 488 kts 100°
2026-04-29 03:57 4.16121 75.27465 31306 ft 488 kts 100°
2026-04-29 03:57 4.15540 75.30809 31678 ft 487 kts 100°
2026-04-29 03:57 4.14960 75.34150 32021 ft 486 kts 100°
2026-04-29 03:58 4.14381 75.37483 32350 ft 485 kts 100°
2026-04-29 03:58 4.13803 75.40812 32731 ft 483 kts 100°
2026-04-29 03:58 4.13234 75.44083 33038 ft 482 kts 99°
2026-04-29 03:58 4.12659 75.47389 33387 ft 481 kts 99°
2026-04-29 03:59 4.12087 75.50683 33717 ft 479 kts 99°